DRAGON CRS-32

Satellite information

Favourite Embed

Satellite Type and Status

PAYLOADIN ORBIT

Key statistics

Satellite DRAGON CRS-32 at a glance.

Uptime

18

Days in orbit

Revolutions

≈ 15.5

Per day

Orbit

LEO

Low Earth Orbit

Inclination

51.6

Latest

Satellite identification and parameters

Extended collection of information and parameters for DRAGON CRS-32.

Object identification

Identified? True

Debris? False

Object name: DRAGON CRS-32

International designator: 2025-080A

Object number (NORAD): 63628

Object ID (CCSDS): 63628

Country: UNITED STATES OF AMERICA (US)

Current information (Y/N): Y

RCS size: LARGE

Orbital parameters

Period: 92.938 minutes

Inclination: 51.6344 deg

SMA: 6796.58 km

Apoapsis: 420.013 km

Periapsis: 416.876 km

RAAN: 143.4433 deg

Eccentricy: 0.0002308

Argument of periapsis: 90.1375 deg

Mean anomaly: 269.9878 deg

Mean motion: 15.4941285 rev/day

Mean motion (dot): 0.00008516 rev/day2

B* drag term: 0.00016025 1/REarth

Two-line elements (TLE)

Creation date: May 9, 2025, 2:46 a.m.

Reference frame: TEME

Reference center: EARTH

Epoch: May 8, 2025, 1:01 p.m. UTC

TLE line 0: 0 DRAGON CRS-32

TLE line 1: 1 63628U 25080A 25128.54292963 .00008516 00000-0 16025-3 0 9995

TLE line 2: 2 63628 51.6344 143.4433 0002308 90.1375 269.9878 15.49412850508540

Live tracking on map

Real-time ground track for satellite DRAGON CRS-32.

In-orbit conjunctions

There are no conjunctions computed for DRAGON CRS-32, at the moment. Check back to stay up to date, as we update our databases every day.

Go to all conjunctions

Associated space launch

32nd commercial resupply services mission to the International Space Station operated by SpaceX. The flight will be conducted under the second Commercial Resupply Services contract with NASA. Cargo Dragon 2 brings supplies and payloads, including critical materials to directly support science and research investigations that occur onboard the orbiting laboratory.

DRAGON CRS-32 was lifted into orbit during the mission ‘Falcon 9 Block 5 | Dragon CRS-2 SpX-32’, on board a Falcon 9 space rocket.

The launch took place on April 21, 2025, 8:15 a.m. from Launch Complex 39A.

For more information about the launch, click the button.

Launch to space Falcon 9 Block 5 | Dragon CRS-2 SpX-32
Falcon 9 Block 5 | Dragon CRS-2 SpX-32

Agency: National Aeronautics and Space Administration

Status: Launch Successful

Launch date: April 21, 2025, 8:15 a.m. UTC

Rocket: Falcon 9

Launch pad: Launch Complex 39A

Location: Kennedy Space Center, FL, USA

...

Latest news about this satellite

News about space launch
NASA Kicks Off Biological Research Aboard Space Station

Crew members are kicking off operations for several biological experiments that recently launched to the International Space Station aboard NASA’s 32nd SpaceX commercial resupply services mission. These include examining how microgravity affects productio...

News about space launch
ACES in space

The Atomic Clock Ensemble in Space (ACES), ESA’s state-of-the-art timekeeping facility, is now installed on the Columbus laboratory of the International Space Station. This still image, captured by external cameras on the Station, shows ACES after install...

News about space launch
ACES finds its home in orbit

The Atomic Clock Ensemble in Space (ACES), ESA’s state-of-the-art timekeeping facility, has been successfully installed on the International Space Station, marking the start of a new chapter in space-based precision science.


Newsletter sign-up

Weekly statistics, charts and insights to help you stay on top of the space industry.